BRITE-AUSTRIA (39091 NORAD) Tracking and Keplerian Element Data

This shows tracking and keplerian element data for the satellite.

Feedback or suggestion? Click here.




ElementValue
Catalog39091
NameBRITE-AUSTRIA
Epoch Orbit62545
Epoch Day34.44647336
Epoch Year2025
RAAN221.7323
Inclination98.3839
Eccentricity0.0009242
Argument of Perigee292.0057
Mean Anonmoly68.0147
Mean Motion14.36175654
Decay Rate6.02E-06
L11 39091U 13009F 25034.44647336 .00000602 00000+0 22089-3 0 9997
L22 39091 98.3839 221.7323 0009242 292.0057 68.0147 14.36175654625456



Live tracking and technical data element details for BRITE-AUSTRIA (NORAD 39091). BRITE-AUSTRIA can be tracked NOW for your location showing map with azimuth and elevation plus other details from your city location.







IsCatalogInMostPopularTable: catalog: 39091, numindb: 569
Update: records affected: 1



GetName: 39091 BRITE-AUSTRIA

Hit Count: updated at: Thu, 15 May 2025 10:36:30 GMT